Regional Weather Roundup
Issued by NWS Kansas City/Pleasant Hill, MO

Home | Current Version | Previous Version | Graphics & Text | Print | Product List | Glossary Off
Versions: 1 2 3 4 5 6 7 8 9 10 11 12 13 14 15 16 17 18 19 20 21 22 23 24 25 26 27 28 29 30 31 32 33 34 35 36 37 38 39 40 41 42 43 44 45 46 47 48 49 50

000
ASUS43 KEAX 181911
RWREAX

WEATHER ROUNDUP FOR EASTERN KANSAS AND NORTHWEST MISSOURI
NATIONAL WEATHER SERVICE KANSAS CITY/PLEASANT HILL MO
200 PM CDT FRI APR 18 2014

KSZ040-057-103>105-MOZ028-029-037-043-182000-
...KANSAS CITY METROPOLITAN AREA...

CITY           SKY/WX    TMP DP  RH WIND       PRES   REMARKS
K.C. INTL      MOSUNNY   64  39  39 SE10      30.26F
K.C. DOWNTOWN  SUNNY     66  40  38 S7        30.26F
LEES SUMMIT    SUNNY     64  41  42 S5        30.27F
OLATHE - IXD   SUNNY     65  41  41 S7        30.27F
OLATHE - OJC   SUNNY     63  41  44 S9        30.26F
LAWRENCE       SUNNY     66  40  38 S9        30.25F

$$

MOZ001>008-011>017-020>025-030>033-038>040-044>046-053-054-182000-
...NORTHERN AND CENTRAL MISSOURI...

CITY           SKY/WX    TMP DP  RH WIND       PRES   REMARKS
ST. JOSEPH     SUNNY     64  36  35 VRB5      30.26F
MOSBY            N/A     61  41  48 E6        30.27F
WARRENSBURG    SUNNY    N/A N/A N/A E6        30.28F
WHITEMAN AFB   SUNNY     64  41  42 VRB5      30.28F
CLINTON        SUNNY     64  45  48 CALM      30.28F
SEDALIA        SUNNY     65  41  41 SE8       30.29F
WARSAW         NOT AVBL
MARSHALL         N/A     64  46  52 SE5       30.32
CHILLICOTHE      N/A     62  40  44 VRB3      30.30F
MOBERLY        SUNNY     64  39  39 CALM      30.30F
KIRKSVILLE     SUNNY     62  36  37 VRB7      30.31F

$$

MOZ041-047>049-056>058-063>065-088>090-097-182000-
...EASTERN AND SOUTHERN MISSOURI...

CITY           SKY/WX    TMP DP  RH WIND       PRES   REMARKS
ST. LOUIS INTL MOSUNNY   68  40  35 VRB5      30.30F
SPIRIT OF STL  SUNNY     66  42  41 CALM      30.30F
COLUMBIA       SUNNY     66  43  43 N3        30.28F
JEFFERSON CITY SUNNY     67  42  40 VRB7      30.27F
MEXICO         SUNNY     64  43  45 CALM      30.29F
HANNIBAL       SUNNY     66  30  26 S7        30.30F
ROLLA          SUNNY     67  42  40 MISG      30.26F
LEBANON        SUNNY     70  34  26 CALM      30.26F
OSAGE BEACH    SUNNY     66  39  37 NE6       30.28F
SPRINGFIELD    SUNNY     68  37  32 S5        30.24F
BRANSON        MOSUNNY   68  36  30 SE9       30.25F
NEVADA         SUNNY     68  43  40 N3        30.26F
JOPLIN         SUNNY     68  42  38 VRB7      30.24F
WEST PLAINS    MOSUNNY   71  40  32 NE9       30.24F

$$

IAZ060-094-KSZ022-034>040-054-083-096-NEZ052-066-093-182000-
...KANSAS...SOUTHEAST NEBRASKA AND IOWA...

CITY           SKY/WX    TMP DP  RH WIND       PRES   REMARKS
TOPEKA         SUNNY     66  40  38 S6        30.25F
MANHATTAN      SUNNY     68  41  37 S12G21    30.20F
EMPORIA        SUNNY     64  40  41 SE10      30.23F
CHANUTE        SUNNY     67  41  38 SE9       30.25F
WICHITA        MOSUNNY   68  44  42 S17G23    30.21F
OMAHA          MOSUNNY   64  34  32 S20       30.19F
LINCOLN        SUNNY     68  38  33 S17G28    30.17F
LAMONI         SUNNY     60  34  37 SE8G17    30.27F
DES MOINES     MOSUNNY   61  33  35 SE13G18   30.29F

$$




USA.gov is the U.S. government's official web portal to all federal, state and local government web resources and services.